COSMOS 1947 (GLONASS)

Satellite information

Favourite Embed

Satellite Type and Status

PAYLOADIN ORBIT

Key statistics

Satellite COSMOS 1947 (GLONASS) at a glance.

Uptime

13673

Days in orbit

Revolutions

≈ 2.1

Per day

Orbit

MEO

Medium Earth Orbit

Inclination

64.8

Latest

Satellite identification and parameters

Extended collection of information and parameters for COSMOS 1947 (GLONASS).

Object identification

Identified? True

Debris? False

Object name: COSMOS 1947 (GLONASS)

International designator: 1988-043B

Object number (NORAD): 19164

Object ID (CCSDS): 19164

Country: COMMONWEALTH OF INDEPENDENT STATES (CIS)

Current information (Y/N): Y

RCS size: LARGE

Orbital parameters

Period: 675.727 minutes

Inclination: 64.8303 deg

SMA: 25507.869 km

Apoapsis: 19189.982 km

Periapsis: 19069.485 km

RAAN: 81.5873 deg

Eccentricy: 0.00236194

Argument of periapsis: 220.131 deg

Mean anomaly: 318.4453 deg

Mean motion: 2.13103954 rev/day

Mean motion (dot): 0.00000013 rev/day2

B* drag term: 0.0 1/REarth

Two-line elements (TLE)

Creation date: Oct. 25, 2025, 3:11 a.m.

Reference frame: TEME

Reference center: EARTH

Epoch: Oct. 24, 2025, 9:06 a.m. UTC

TLE line 0: 0 COSMOS 1947 (GLONASS)

TLE line 1: 1 19164U 88043B 25297.37961669 .00000013 00000-0 00000-0 0 9990

TLE line 2: 2 19164 64.8303 81.5873 0023619 220.1310 318.4453 2.13103954286270

Live tracking on map

Real-time ground track for satellite COSMOS 1947 (GLONASS).

In-orbit conjunctions

There are no conjunctions computed for COSMOS 1947 (GLONASS), at the moment. Check back to stay up to date, as we update our databases every day.

Go to all conjunctions

Associated space launch

GLONASS navigation satellites

COSMOS 1947 (GLONASS) was lifted into orbit during the mission ‘Proton | Uragan 26 to 28’, on board a Proton space rocket.

The launch took place on May 21, 1988, 5:57 p.m. from 200/39 (200L).

For more information about the launch, click the button.

Launch to space Proton | Uragan 26 to 28
Proton | Uragan 26 to 28

Agency: N/A

Status: Launch Successful

Launch date: May 21, 1988, 5:57 p.m. UTC

Rocket: Proton

Launch pad: 200/39 (200L)

Location: Baikonur Cosmodrome, Republic of Kazakhstan

...

Latest news about this satellite

There are no fresh news available about this satellite. Check back as we update our databases every day.


Newsletter sign-up

Weekly statistics, charts and insights to help you stay on top of the space industry.